This is the latest recevied weather packets stored in our database for station/object W5CRT. If no packets are shown the sender has not sent any weather packets the latest 10 day(s).
| Time | Temp. | Humidity | Pressure | Rain* | Wind** | Luminosity | Snow |
|---|---|---|---|---|---|---|---|
| 1777741958 | 22.22° C | 37% | 1020.1 hPa | 0 mm | - | 972 W/m² | - |
| 1777741655 | 22.22° C | 34% | 1020.5 hPa | 0 mm | - | 963 W/m² | - |
| 1777741351 | 21.67° C | 39% | 1020.2 hPa | 0 mm | - | 954 W/m² | - |
| 1777741047 | 22.22° C | 38% | 1020.5 hPa | 0 mm | - | 945 W/m² | - |
| 1777740745 | 22.22° C | 37% | 1020.2 hPa | 0 mm | - | 940 W/m² | - |
| 1777740441 | 21.67° C | 39% | 1020.4 hPa | 0 mm | - | 923 W/m² | - |
| 1777740139 | 22.22° C | 38% | 1020.6 hPa | 0 mm | - | 913 W/m² | - |
| 1777739834 | 21.67° C | 35% | 1020.3 hPa | 0 mm | - | 906 W/m² | - |
| 1777739531 | 21.11° C | 42% | 1020.1 hPa | 0 mm | - | 888 W/m² | - |
| 1777739228 | 21.11° C | 41% | 1020.2 hPa | 0 mm | - | 872 W/m² | - |
| 1777738924 | 21.67° C | 36% | 1020.3 hPa | 0 mm | - | 865 W/m² | - |
| 1777738622 | 20.56° C | 38% | 1020 hPa | 0 mm | - | 847 W/m² | - |
| 1777738318 | 21.11° C | 36% | 1020.3 hPa | 0 mm | - | 835 W/m² | - |
| 1777738016 | 21.11° C | 43% | 1020.3 hPa | 0 mm | - | 824 W/m² | - |
| 1777737715 | 20.56° C | 41% | 1020.3 hPa | 0 mm | - | 810 W/m² | - |
| 1777737413 | 20.56° C | 46% | 1020.4 hPa | 0 mm | - | 797 W/m² | - |
| 1777737110 | 20° C | 42% | 1020.1 hPa | 0 mm | - | 782 W/m² | - |
| 1777736806 | 20° C | 42% | 1020.1 hPa | 0 mm | - | 769 W/m² | - |
| 1777736177 | 19.44° C | 44% | 1020.2 hPa | 0 mm | - | 740 W/m² | - |
| 1777735875 | 19.44° C | 48% | 1019.9 hPa | 0 mm | - | 723 W/m² | - |
| 1777735572 | 19.44° C | 46% | 1020 hPa | 0 mm | - | 706 W/m² | - |
| 1777735269 | 19.44° C | 48% | 1019.9 hPa | 0 mm | - | 689 W/m² | - |
| 1777734966 | 18.89° C | 49% | 1020.2 hPa | 0 mm | - | 671 W/m² | - |
| 1777734663 | 18.89° C | 48% | 1020 hPa | 0 mm | - | 652 W/m² | - |
| 1777734361 | 18.33° C | 51% | 1020 hPa | 0 mm | - | 630 W/m² | - |
* Rain latest hour (hover to see other rain measurements)
** Current wind speed in m/s (hover to see current wind gust speed)